IRIDIUM 140 (43252 NORAD) Tracking and Keplerian Element Data

This shows tracking and keplerian element data for the satellite.

Feedback or suggestion? Click here.




ElementValue
Catalog43252
NameIRIDIUM 140
Epoch Orbit424
Epoch Day118.51337892
Epoch Year2018
RAAN92.3088
Inclination86.518
Eccentricity0.0001179
Argument of Perigee57.4126
Mean Anonmoly302.7195
Mean Motion14.54971312
Decay Rate8.2E-07
L11 43252U 18030D 18118.51337892 .00000082 00000-0 14158-4 0 9998
L22 43252 86.5180 92.3088 0001179 57.4126 302.7195 14.54971312 4243

Live tracking and technical data element details for IRIDIUM 140 (NORAD 43252). IRIDIUM 140 can be tracked NOW for your location showing map with azimuth and elevation plus other details from your city location.

Track the satellite on the map from your city or location and see movement details for azimuth, elevation, latitude, longitude, range, height, and movement on the map or in text.







IsCatalogInMostPopularTable: catalog: 43252, numindb: 62
Update: records affected: 1



GetName: 43252 IRIDIUM 140

Hit Count: updated at: Sat, 17 Nov 2018 03:21:37 GMT